Content
SEND FEEDBACK

Daily
Averages
Monthly
Summary
United States of America

ROLLA, MISSOURI


Home > North America > United States > Missouri
Elevation: 334 meters     Latitude: 38 07N     Longitude: 091 46W

WEATHER
 
SELECT A DAY
Number of Records: 205,613;   Date Range: 1/1/95 - 11/21/14
 
SHARE

PRINT THIS DATA

[ ← Previous Day ]
WEATHER ALMANAC - 31 JANUARY, 2013
[ Next Day → ]
[ °F ]   °C
Weather ElementAverageHighLow
Temperature-5 °C1.1 °C (11:53 am)-12.2 °C (10:53 pm)
Dewpoint-10.4 °C-6 °C (2:12 pm)-18.3 °C (11:53 pm)
Humidity66.7 %75 % (2:53 am)50 % (4:53 pm)
Barometer1020.3 hPa1030.5 hPa (11:53 pm)1014.9 hPa (1:53 am)
Wind Speed23.5 km/h38.9 km/h (4:53 pm)
Wind Gust57.5 km/h (4:53 pm)
Weather ElementAverage
Visibility14.8 km
Wind DirectionWNW (278.5 °)

Weather ElementTotal
Precipitation---
Heating Degree Days23.9 (Base 18.3)
Averaged from 27 records on 31 January, 2013
WEATHER CONDITIONS BREAKOUT
WIND DIRECTION BREAKOUT
WEATHER BY HOUR - 31 JANUARY, 2013
[ °F ]   °C
Local TimeTemperatureDewpointHumidityBarometerVisibilityWind DirectionWind SpeedGust SpeedPrecipitationEventsConditions
1:53 AM-3.9 °C-8.3 °C72 %1014.9 hPa16.1 kmWest (260°)14.8 km/hOvercast
2:53 AM-3.9 °C-7.8 °C75 %1014.9 hPa16.1 kmWest (280°)13 km/hOvercast
3:53 AM-4.4 °C-8.9 °C71 %1014.9 hPa16.1 kmWest (280°)20.4 km/hMostly Cloudy
4:53 AM-5 °C-8.9 °C74 %1014.9 hPa16.1 kmWest (260°)16.7 km/hOvercast
5:53 AM-5 °C-8.9 °C74 %1015.2 hPa16.1 kmWSW (240°)13 km/hOvercast
6:53 AM-4.4 °C-8.3 °C75 %1015.6 hPa16.1 kmWSW (240°)11.1 km/hOvercast
7:53 AM-3.9 °C-7.8 °C75 %1016.3 hPa16.1 kmSW (230°)13 km/hOvercast
8:53 AM-3.3 °C-7.2 °C75 %1017.3 hPa16.1 kmWSW (240°)18.5 km/hMostly Cloudy
9:53 AM-1.7 °C-7.2 °C67 %1017.6 hPa16.1 kmWSW (250°)22.2 km/hMostly Cloudy
10:53 AM0.6 °C-6.1 °C61 %1017.6 hPa16.1 kmWest (260°)16.7 km/hPartly Cloudy
11:53 AM1.1 °C-6.1 °C59 %1017.3 hPa16.1 kmWest (270°)24.1 km/h35.2 km/hMostly Cloudy
12:53 PM0.6 °C-6.1 °C61 %1017.6 hPa16.1 kmWNW (290°)29.6 km/h40.7 km/hOvercast
2:12 PM-2 °C-6 °C74 %1017.9 hPa4 kmWNW (300°)33.3 km/h40.7 km/h0 mmSnowLight Snow
2:29 PM-3 °C-7 °C74 %1018.3 hPa9.7 kmWNW (290°)25.9 km/h44.4 km/h0 mmSnowLight Snow
2:53 PM-2.8 °C-7.8 °C69 %1020 hPa16.1 kmWest (280°)27.8 km/h38.9 km/h0 mmOvercast
3:13 PM-4 °C-8 °C74 %1019 hPa3.2 kmWNW (290°)31.5 km/h40.7 km/h0 mmSnowLight Snow
3:22 PM-4 °C-8 °C74 %1019.3 hPa11.3 kmWNW (290°)27.8 km/h40.7 km/h0 mmSnowLight Snow
3:48 PM-4 °C-11 °C59 %1020 hPa16.1 kmWNW (290°)33.3 km/h53.8 km/h0 mmOvercast
3:53 PM-3.9 °C-11.7 °C55 %1021.3 hPa16.1 kmWest (280°)37 km/h53.8 km/h0 mmOvercast
4:53 PM-6.1 °C-15 °C50 %1022.7 hPa16.1 kmWNW (290°)38.9 km/h57.5 km/hClear
5:53 PM-7.8 °C-15 °C57 %1024.4 hPa16.1 kmWNW (290°)27.8 km/h38.9 km/hClear
6:53 PM-8.3 °C-15 °C59 %1025.4 hPa16.1 kmWNW (300°)27.8 km/h44.4 km/hClear
7:53 PM-10 °C-16.1 °C62 %1026.8 hPa16.1 kmWNW (300°)31.5 km/h38.9 km/hClear
8:53 PM-10.6 °C-16.1 °C65 %1028.1 hPa16.1 kmNW (310°)20.4 km/h37 km/hClear
9:53 PM-11.1 °C-17.2 °C61 %1029.1 hPa16.1 kmNW (310°)25.9 km/h37 km/hClear
10:53 PM-12.2 °C-17.2 °C67 %1029.8 hPa16.1 kmNW (310°)14.8 km/hPartly Cloudy
11:53 PM-12.2 °C-18.3 °C61 %1030.5 hPa16.1 kmWNW (290°)14.8 km/h29.6 km/hClear
Hourly data recorded from KVIH, located 0 kilometers away from Rolla, Missouri







STORIES FROM OUR PARTNERS